| time (UTC) | temp F | wind direction | speed MPH | gust MPH | rain 1hr in | rain 24hr in | rain mn in | humidity % | barometer mb |
| 20260505041559 | 72 | 228 | 3.0 | 9.0 | 0.00 | 0.00 | 0.00 | 26 | 992.7 |
| 20260505040100 | 71 | 248 | 2.0 | 3.0 | 0.00 | 0.00 | 0.00 | 28 | 992.7 |
| 20260505034558 | 73 | 232 | 1.0 | 3.0 | 0.00 | 0.00 | 0.00 | 27 | 992.8 |
| 20260505033058 | 74 | 230 | 1.0 | 2.0 | 0.00 | 0.00 | 0.00 | 24 | 992.8 |
| 20260505031605 | 76 | 244 | 1.0 | 3.0 | 0.00 | 0.00 | 0.00 | 23 | 992.7 |
| 20260505030057 | 77 | 248 | 1.0 | 3.0 | 0.00 | 0.00 | 0.00 | 22 | 992.6 |
| 20260505024609 | 78 | 184 | 2.0 | 4.0 | 0.00 | 0.00 | 0.00 | 21 | 992.3 |
| 20260505023056 | 79 | 184 | 1.0 | 4.0 | 0.00 | 0.00 | 0.00 | 20 | 992.3 |
| 20260505021611 | 79 | 206 | 1.0 | 3.0 | 0.00 | 0.00 | 0.00 | 20 | 992.3 |
| 20260505020054 | 80 | 209 | 1.0 | 4.0 | 0.00 | 0.00 | 0.00 | 20 | 992.1 |
| 20260505014554 | 81 | 228 | 1.0 | 3.0 | 0.00 | 0.00 | 0.00 | 19 | 992.1 |
| 20260505013054 | 82 | 244 | 1.0 | 3.0 | 0.00 | 0.00 | 0.00 | 18 | 992.1 |
| 20260505011557 | 84 | 225 | 2.0 | 6.0 | 0.00 | 0.00 | 0.00 | 18 | 991.9 |
| 20260505010052 | 85 | 269 | 3.0 | 7.0 | 0.00 | 0.00 | 0.00 | 17 | 991.9 |
| 20260505004551 | 85 | 285 | 5.0 | 10.0 | 0.00 | 0.00 | 0.00 | 16 | 992.1 |
| 20260505003049 | 86 | 271 | 5.0 | 12.0 | 0.00 | 0.00 | 0.00 | 16 | 992.1 |
| 20260505001548 | 86 | 264 | 8.0 | 16.0 | 0.00 | 0.00 | 0.00 | 16 | 992.3 |
| 20260505000046 | 87 | 260 | 9.0 | 16.0 | 0.00 | 0.00 | 0.00 | 15 | 992.4 |
| 20260504234543 | 87 | 246 | 13.0 | 20.0 | 0.00 | 0.00 | 0.00 | 15 | 992.7 |
| 20260504233056 | 87 | 300 | 11.0 | 20.0 | 0.00 | 0.00 | 0.00 | 15 | 992.7 |
| 20260504231542 | 87 | 257 | 10.0 | 20.0 | 0.00 | 0.00 | 0.00 | 15 | 992.7 |
| 20260504230043 | 88 | 270 | 13.0 | 23.0 | 0.00 | 0.00 | 0.00 | 15 | 992.9 |
| 20260504224540 | 88 | 260 | 13.0 | 26.0 | 0.00 | 0.00 | 0.00 | 14 | 993.1 |
| 20260504223041 | 89 | 259 | 14.0 | 21.0 | 0.00 | 0.00 | 0.00 | 14 | 992.9 |
| 20260504221545 | 89 | 273 | 15.0 | 22.0 | 0.00 | 0.00 | 0.00 | 13 | 993.0 |
| 20260504220051 | 89 | 261 | 10.0 | 23.0 | 0.00 | 0.00 | 0.00 | 14 | 993.2 |
| 20260504214537 | 89 | 265 | 9.0 | 20.0 | 0.00 | 0.00 | 0.00 | 15 | 993.2 |
| 20260504213034 | 89 | 250 | 11.0 | 26.0 | 0.00 | 0.00 | 0.00 | 15 | 993.5 |
| 20260504211532 | 89 | 292 | 11.0 | 19.0 | 0.00 | 0.00 | 0.00 | 16 | 993.3 |
| 20260504210031 | 90 | 306 | 14.0 | 26.0 | 0.00 | 0.00 | 0.00 | 15 | 993.7 |
| 20260504204541 | 90 | 246 | 6.0 | 20.0 | 0.00 | 0.00 | 0.00 | 16 | 993.8 |
| 20260504203027 | 90 | 221 | 9.0 | 19.0 | 0.00 | 0.00 | 0.00 | 15 | 994.0 |
| 20260504201524 | 90 | 215 | 11.0 | 17.0 | 0.00 | 0.00 | 0.00 | 15 | 994.3 |
| 20260504200023 | 90 | 257 | 8.0 | 13.0 | 0.00 | 0.00 | 0.00 | 16 | 994.6 |
| 20260504194519 | 90 | 279 | 7.0 | 16.0 | 0.00 | 0.00 | 0.00 | 16 | 995.0 |
| 20260504193016 | 89 | 259 | 4.0 | 19.0 | 0.00 | 0.00 | 0.00 | 14 | 995.4 |
| 20260504191515 | 89 | 286 | 5.0 | 16.0 | 0.00 | 0.00 | 0.00 | 13 | 995.6 |
| 20260504190011 | 88 | 202 | 4.0 | 11.0 | 0.00 | 0.00 | 0.00 | 15 | 995.8 |
| 20260504184513 | 87 | 260 | 7.0 | 14.0 | 0.00 | 0.00 | 0.00 | 15 | 996.0 |
| 20260504183004 | 87 | 284 | 6.0 | 15.0 | 0.00 | 0.00 | 0.00 | 17 | 996.4 |
| 20260504181609 | 86 | 298 | 9.0 | 16.0 | 0.00 | 0.00 | 0.00 | 17 | 996.6 |
| 20260504180056 | 84 | 317 | 7.0 | 14.0 | 0.00 | 0.00 | 0.00 | 18 | 997.0 |
| 20260504174553 | 84 | 323 | 5.0 | 16.0 | 0.00 | 0.00 | 0.00 | 19 | 997.2 |
| 20260504173050 | 82 | 296 | 7.0 | 15.0 | 0.00 | 0.00 | 0.00 | 21 | 997.5 |
| 20260504171546 | 81 | 287 | 6.0 | 11.0 | 0.00 | 0.00 | 0.00 | 23 | 997.6 |
| 20260504081541 | 64 | 201 | 6.0 | 19.0 | 0.00 | 0.00 | 0.00 | 46 | 1000.6 |